Location: ??????????
(44.2167°N, 135.5333°E)
Time: 15:24:39
(UTC+00:00)

NPP - Pass Details

Date: 15 June 2025
Orbit: 826 x 828 km, 98.8° (Epoch: 16 July)

Event Time Altitude Azimuth Distance (km) Brightness Sun altitude
Rises 16:40:50 0° 15° (NNE) 3,379 8.4 -18.5°
Reaches altitude 10° 16:43:12 10° 17° (NNE) 2,441 7.4 -18.3°
Maximum altitude 16:48:37 75° 103° (ESE) 861 3.7 -17.9°
Enters shadow 16:51:35 28° 184° (S) 1,522 4.5 -17.7°
